Starlink 4732

operational
NORAD ID: 53870 Int'l Des: 2022-114 Owner: SPXS Country: US Constellation: starlink
LEOCIRCULAR

About Starlink 4732

Description loading...

Live Position

Loading 3D Globe...

Upcoming Passes

Altitude History

Altitude vs Time

uPlot chart will show altitude changes over time

Two-Line Element Set

1 53870U 22114BE 26095.12193050 .00000179 00000-0 29326-4 0 9999
2 53870 53.2154 145.3967 0001282 90.8020 269.3119 15.08832238197381
Epoch: Apr 5, 2026 • Age: 12 hours

Current Status

Altitude 543.2 km
Velocity 7.60 km/s
Sub-Earth Point 42.67°N, 132.9°W
Launch Date Sep 19, 2022
Age 3.5 years
Type internet

Technical Details

Classification Payload
Mass 305.00 kg
Dry Mass 290.00 kg
Total Mass 305.00 kg
Length 0.20 m
Diameter 2.80 m
Span 9.00 m
Shape Box + pan
Manufacturer SPXS
Bus Type Starlink
Phase Status In Orbit
Owner/State SPXS/US

Large Constellations

Loading constellations...